Charlottesville, VA

2:02 PM EDT on June 25, 2017 (GMT -0400)
Charlottesville-Albemarle

Weather History for KCHO - January, 2012

Change the Weather History Date:

Sunday, January 22, 2012

  Actual Average Record
Temperature  
Mean Temperature 32 °F 35 °F  
Max Temperature 34 °F 45 °F 77 °F (1927)
Min Temperature 30 °F 26 °F 0 °F (1985)
Degree Days  
Heating Degree Days 33 30  
Month to date heating degree days 589 660  
Since 1 July heating degree days 1974 2396  
Cooling Degree Days 0 0  
Month to date cooling degree days 0 0  
Year to date cooling degree days 0 0  
Moisture  
Dew Point 29 °F    
Average Humidity 89    
Maximum Humidity 92    
Minimum Humidity 85    
Precipitation  
Precipitation T in 0.09 in 1.56 in (1949)
Month to date precipitation 1.95 1.97  
Year to date precipitation 1.95 1.97  
Sea Level Pressure  
Sea Level Pressure 30.38 in    
Wind  
Wind Speed 0 mph (NNE)    
Max Wind Speed 7 mph    
Max Gust Speed 12 mph    
Visibility 4 miles    
Events Snow    
T = Trace of Precipitation, MM = Missing Value Source: NWS Daily Summary

Daily Weather History Graph

Daily Weather History Graph

Search for Another Location

Airport or City:

Trip Planner

Search our weather history database for the weather conditions in past years. The results will help you decide how hot, cold, wet, or windy it might be!

Date:

Astronomy

Jan. 22, 2012 Rise Set
Actual Time 7:26 AM EST 5:24 PM EST
Civil Twilight 6:57 AM EST 5:53 PM EST
Nautical Twilight 6:25 AM EST 6:25 PM EST
Astronomical Twilight 5:54 AM EST 6:56 PM EST
Moon 6:41 AM EST (1/22) 5:04 PM EST (1/22)
Length of Visible Light 10h 55m
Length of Day
9h 58m
Waning Crescent, 0% of the Moon is Illuminated
Jan 22
Waning Crescent
Jan 23
New
Jan 30
First Quarter
Feb 7
Full
Feb 14
Last Quarter

Hourly Weather History & Observations

Time (EST) Temp. Windchill Dew Point Humidity Pressure Visibility Wind Dir Wind Speed Gust Speed Precip Events Conditions
12:53 AM 30.9 °F 27.5 °F 27.0 °F 85% 30.29 in 10.0 mi NNE 3.5 mph - N/A   Overcast
1:53 AM 30.9 °F 27.5 °F 27.0 °F 85% 30.31 in 10.0 mi NNW 3.5 mph - N/A   Overcast
2:53 AM 30.9 °F - 28.0 °F 89% 30.34 in 10.0 mi Calm Calm - N/A   Overcast
3:53 AM 30.9 °F - 28.0 °F 89% 30.34 in 10.0 mi Calm Calm - N/A   Overcast
4:53 AM 30.9 °F - 28.0 °F 89% 30.34 in 8.0 mi Calm Calm - N/A   Overcast
6:06 AM 30.2 °F 26.7 °F 26.6 °F 86% 30.35 in 3.0 mi NE 3.5 mph - 0.00 in Snow Light Snow
6:45 AM 30.2 °F 26.7 °F 26.6 °F 86% 30.35 in 5.0 mi NE 3.5 mph - 0.00 in   Overcast
6:53 AM 30.0 °F - 27.0 °F 88% 30.37 in 5.0 mi Calm Calm - 0.00 in   Overcast
7:53 AM 30.0 °F - 27.0 °F 88% 30.39 in 4.0 mi Calm Calm - N/A   Overcast
8:46 AM 30.2 °F - 26.6 °F 86% 30.39 in 6.0 mi Calm Calm - N/A   Overcast
8:53 AM 30.9 °F - 27.0 °F 85% 30.41 in 6.0 mi Calm Calm - N/A   Overcast
9:53 AM 30.9 °F 25.2 °F 28.0 °F 89% 30.45 in 5.0 mi NE 5.8 mph - 0.00 in Snow Light Snow
10:04 AM 30.2 °F - 26.6 °F 86% 30.43 in 6.0 mi Calm Calm - 0.00 in Snow Light Snow
10:53 AM 32.0 °F - 28.4 °F 87% 30.43 in 6.0 mi Calm Calm - N/A Snow Light Snow
11:00 AM 32.0 °F - 28.4 °F 87% 30.42 in 5.0 mi Calm Calm - 0.00 in Snow Light Snow
11:38 AM 32.0 °F - 28.4 °F 87% 30.43 in 1.8 mi Calm Calm - 0.00 in Snow Light Snow
11:53 AM 32.0 °F - 28.9 °F 88% 30.44 in 1.0 mi Calm Calm - 0.00 in Snow Light Snow
12:33 PM 32.0 °F - 28.4 °F 87% 30.40 in 0.8 mi Calm Calm - 0.00 in Snow Light Snow
12:49 PM 32.0 °F - 28.4 °F 87% 30.40 in 1.5 mi Calm Calm - 0.00 in Snow Light Snow
12:53 PM 32.0 °F - 28.9 °F 88% 30.42 in 2.0 mi Calm Calm - 0.00 in Snow Light Snow
1:04 PM 33.8 °F - 30.2 °F 87% 30.41 in 3.0 mi Calm Calm - 0.00 in Snow Light Snow
1:34 PM 33.8 °F 30.8 °F 30.2 °F 87% 30.39 in 5.0 mi North 3.5 mph - 0.00 in Snow Light Snow
1:53 PM 33.1 °F - 30.0 °F 89% 30.40 in 4.0 mi Calm Calm - 0.00 in Snow Light Snow
2:31 PM 33.8 °F 30.8 °F 30.2 °F 87% 30.37 in 3.0 mi East 3.5 mph - 0.00 in Snow Light Snow
2:40 PM 33.8 °F - 30.2 °F 87% 30.37 in 2.5 mi Calm Calm - 0.00 in Snow Light Snow
2:53 PM 33.1 °F - 30.0 °F 89% 30.39 in 3.0 mi Calm Calm - 0.00 in Snow Light Snow
3:04 PM 33.8 °F - 30.2 °F 87% 30.37 in 2.0 mi Calm Calm - 0.00 in Snow Light Snow
3:53 PM 33.1 °F - 30.9 °F 92% 30.39 in 2.0 mi Calm Calm - 0.00 in Snow Light Snow
4:16 PM 33.8 °F - 30.2 °F 87% 30.38 in 2.0 mi Calm Calm - 0.00 in   Overcast
4:26 PM 33.8 °F - 30.2 °F 87% 30.38 in 2.0 mi Calm Calm - 0.00 in   Overcast
4:37 PM 33.8 °F - 30.2 °F 87% 30.38 in 2.0 mi Calm Calm - 0.00 in   Overcast
4:53 PM 33.1 °F - 30.0 °F 89% 30.40 in 2.0 mi Calm Calm - 0.00 in   Overcast
5:53 PM 32.0 °F - 30.9 °F 96% 30.39 in 2.0 mi Calm Calm - N/A   Overcast
6:53 PM 32.0 °F - 30.9 °F 96% 30.39 in 2.0 mi Calm Calm - N/A   Overcast
7:53 PM 32.0 °F - 30.9 °F 96% 30.39 in 2.0 mi Calm Calm - N/A   Overcast
8:53 PM 33.1 °F - 30.9 °F 92% 30.39 in 2.0 mi Calm Calm - N/A   Overcast
9:53 PM 32.0 °F - 30.9 °F 96% 30.37 in 2.0 mi Calm Calm - N/A   Overcast
10:53 PM 32.0 °F - 30.9 °F 96% 30.35 in 2.0 mi Calm Calm - N/A   Overcast
11:02 PM 32.0 °F - 30.2 °F 93% 30.34 in 1.8 mi Calm Calm - N/A   Overcast
11:10 PM 32.0 °F - 30.2 °F 93% 30.34 in 2.5 mi Calm Calm - N/A   Overcast
11:30 PM 32.0 °F - 30.2 °F 93% 30.33 in 1.8 mi Calm Calm - N/A   Overcast
11:53 PM 32.0 °F - 30.9 °F 96% 30.35 in 1.2 mi Calm Calm - N/A   Overcast